User: anonymous   Login
Location: Unspecified
(0.0000°N, 0.0000°E)
Time: 15:16:30
(UTC+00:00)
Language:

OPAL - Orbit

View from above orbital plane
View from above orbital plane
View from above satellite
View from above satellite

Ground track
Ground track

The orbit data is extracted from the following two-line orbital elements,

1 26063U 00004C   18345.17626412 -.00000009  00000-0  16925-4 0  9998
2 26063 100.1910  93.3154 0036126 219.4447 140.4102 14.36714355989204
Epoch (UTC): 11 December 2018 04:13:49
Eccentricity: 0.0036126
inclination: 100.1910°
perigee height: 743 km
apogee height: 795 km
right ascension of ascending node: 93.3154°
argument of perigee: 219.4447°
revolutions per day: 14.36714355
mean anomaly at epoch: 140.4102°
orbit number at epoch: 98920

The dashed part of the orbit path shows where the satellite is in the earth's shadow,  

DLR